Regional Weather Roundup
Issued by NWS Sioux Falls, SD

Home | Current Version | Previous Version | Text Only | Print | Product List | Glossary Off
Versions: 1 2 3 4 5 6 7 8 9 10 11 12 13 14 15 16 17 18 19 20 21 22 23 24 25 26 27 28 29 30 31 32 33 34 35 36 37 38 39 40 41 42 43 44 45 46 47 48 49 50

000
ASUS43 KFSD 241602
RWRFSD

WEATHER ROUNDUP FOR SE SOUTH DAKOTA/SW MINNESOTA/NW IOWA
NATIONAL WEATHER SERVICE SIOUX FALLS SD
1100 AM CDT MON JUL 24 2017

NOTE: "FAIR" INDICATES FEW OR NO CLOUDS BELOW 12,000 FEET WITH NO
SIGNIFICANT WEATHER AND OR OBSTRUCTIONS TO VISIBILITY.


SDZ038>040-050-052>070-241700-
SOUTHEAST SOUTH DAKOTA

CITY           SKY/WX    TMP DP  RH WIND       PRES   REMARKS
BROOKINGS      MOSUNNY   72  61  68 SE12      30.02F
CHAMBERLAIN    SUNNY     84  64  50 SE21G29   29.88F
HURON          SUNNY     75  62  64 S16G25    29.94F
MADISON        FAIR      72  68  88 S13       30.02F
MITCHELL       SUNNY     77  62  59 SE16      29.97F
SIOUX FALLS    PTSUNNY   73  63  70 SE13      30.01F
WINNER         FAIR      85  61  44 S25G33    29.89F
YANKTON        SUNNY     77  62  59 S15       30.01
$$

MNZ071-072-080-081-089-090-097-098-241700-
SOUTHWEST MINNESOTA

CITY           SKY/WX    TMP DP  RH WIND       PRES   REMARKS
FAIRMONT       MOSUNNY   69  61  75 MISG      30.07S
JACKSON        MOSUNNY   70  59  68 CALM      30.07F
LUVERNE        MOSUNNY   72  59  64 S8        30.04F
MARSHALL       CLOUDY    73  62  68 SE13      30.03F
MONTEVIDEO     PTSUNNY   75  63  64 S8        30.03S
PIPESTONE      MOSUNNY   73  63  68 S9        30.04F
REDWOOD FALLS  CLOUDY    71  60  68 S8        30.04F
WINDOM         SUNNY     72  61  68 SE3       30.05F
WORTHINGTON    SUNNY     72  62  71 S8        30.06F
$$

IAZ001>003-012>014-020>022-031-032-NEZ013-014-SDZ071-241700-
NORTHWEST IOWA

CITY           SKY/WX    TMP DP  RH WIND       PRES   REMARKS
CHEROKEE       SUNNY     75  62  64 CALM      30.04F
DENISON        SUNNY     75  61  60 E7        30.06F
ESTHERVILLE    SUNNY     69  61  75 SE6       30.06S
ORANGE CITY    SUNNY     73  63  68 SE5       30.04F
SHELDON        MOSUNNY   72  63  73 VRB5      30.03F
SIOUX CITY     MOSUNNY   76  63  64 SE9       30.02F
SPENCER        SUNNY     73  60  63 SE3       30.05F
STORM LAKE     SUNNY     73  61  64 VRB5      30.05F
$$

ABBREVIATIONS USED IN REMARKS
   TC - TEMPERATURE IN CELSIUS
  WCI - WIND CHILL INDEX
   HX - HEAT INDEX
  VSB - VISIBILITY




USA.gov is the U.S. government's official web portal to all federal, state and local government web resources and services.